Location: *
(49.7115°N, 15.0136°E)
Time: 15:20:49
(UTC+00:00)

Daily predictions for brighter satellites

Satellite Brightness Start Highest point End
(mag) Time Altitude Azimuth Time Altitude Azimuth Time Altitude Azimuth
NOSS 2-3 (E) 3.8 17:04:14 10° SSW 17:08:33 67° SE 17:13:45 10° NE
Cosmos 1862 Rocket 3.5 17:04:56 10° N 17:09:18 83° E 17:13:40 10° S
Okean 1-7 3.9 17:05:54 10° N 17:09:43 29° ENE 17:13:31 10° SE
Okean 1 4.4 17:06:30 10° NNE 17:09:50 24° ENE 17:13:08 10° SE
YAOGAN 6 3.4 17:06:25 10° S 17:09:51 54° W 17:13:17 10° NNW
Envisat 4.1 17:05:26 10° S 17:10:21 51° W 17:15:20 10° NNW
STARLINK-1036 3.6 17:07:08 10° WSW 17:11:17 77° SSE 17:15:26 10° ENE
Lacrosse 5 3.3 17:08:40 10° S 17:12:15 20° SE 17:15:50 10° E
COSMO-SKYMED 1 2.5 17:08:44 10° NNE 17:13:06 73° ESE 17:17:26 10° S
STARLINK-81 3.9 17:10:41 10° W 17:14:41 58° N 17:18:39 10° ENE
Gbstr 26 Del rocket 3.9 17:11:38 10° SSW 17:15:12 32° SE 17:19:19 10° ENE
USA 234 3.9 17:09:18 10° ENE 17:15:34 51° N 17:21:51 10° W
STARLINK-1048 3.6 17:12:21 10° W 17:15:43 54° NNW 17:19:06 10° ENE
STARLINK-1044 3.6 17:12:07 10° WSW 17:16:16 82° SSE 17:20:25 10° ENE
STARLINK-54 4.0 17:12:34 10° W 17:16:32 56° N 17:20:31 10° ENE
Cosmos 405 3.7 17:14:23 10° N 17:17:38 32° ENE 17:20:52 10° SE
STARLINK-1049 3.6 17:14:29 10° W 17:17:51 53° N 17:21:14 10° ENE
STARLINK-77 3.9 17:14:01 10° W 17:18:00 57° N 17:21:59 10° ENE
STARLINK-1027 3.7 17:13:58 10° WSW 17:18:14 90° NNW 17:22:31 10° ENE
Cosmos 2369 Rocket 2.4 17:13:06 10° SSW 17:18:47 81° WNW 17:24:32 10° NNE
STARLINK-25 4.0 17:15:41 10° W 17:19:39 57° N 17:23:38 10° ENE
STARLINK-1051 3.6 17:16:39 10° W 17:20:01 53° N 17:23:24 10° ENE
Cosmos 1812 4.1 17:17:25 10° NNW 17:21:08 45° W 17:24:50 10° SSW
STARLINK-71 4.0 17:17:34 10° W 17:21:32 55° N 17:25:28 10° ENE
STARLINK-1028 3.6 17:18:17 10° W 17:21:40 52° N 17:25:00 10° ENE
STARLINK-79 4.0 17:19:01 10° W 17:22:58 56° N 17:26:52 10° ENE
Cosmos 1898 Rocket 3.6 17:18:07 10° NNW 17:23:12 53° ENE 17:28:17 10° SE
NOSS 2-3 (D) 3.7 17:19:19 10° SW 17:23:41 81° SE 17:28:56 10° NE
Cosmos 44 Rocket 3.3 17:19:04 10° NW 17:23:46 60° NE 17:28:30 10° SE
STARLINK-1021 3.7 17:20:29 10° W 17:23:52 51° N 17:27:06 11° ENE
Cosmos 2242 Rocket 3.6 17:19:58 10° N 17:24:33 71° E 17:29:07 10° SSE
STARLINK-78 4.0 17:20:42 10° W 17:24:39 55° N 17:28:29 11° ENE
STARLINK-1019 3.7 17:22:41 10° W 17:26:03 51° N 17:29:13 11° ENE
STARLINK-1037 3.6 17:21:58 10° WSW 17:26:08 89° SE 17:30:09 11° ENE
USA 229 DEB 4.2 17:19:52 10° WSW 17:26:24 62° NW 17:33:21 10° NE
STARLINK-57 4.0 17:22:27 10° W 17:26:25 55° N 17:30:09 11° ENE
USA 229 4.2 17:19:58 10° WSW 17:26:31 62° NW 17:33:27 10° NE
Cosmos 1703 Rocket 3.8 17:22:30 10° N 17:26:52 49° ENE 17:31:12 10° SSE
Cosmos 1763 Rocket 4.3 17:23:01 10° SSE 17:27:26 29° E 17:31:56 10° NE
SJ 16-02 1.6 17:23:32 10° NNW 17:27:50 49° ENE 17:32:07 10° SE
STARLINK-49 4.0 17:24:00 10° W 17:27:58 55° N 17:31:39 12° ENE
STARLINK-1056 4.4 17:24:19 10° SSW 17:28:05 35° SE 17:31:27 12° E
STARLINK-1012 3.7 17:24:54 10° W 17:28:17 50° N 17:31:21 12° ENE
CENTAUR R/B 3.9 17:21:41 10° NW 17:28:25 35° NNE 17:35:27 12° E
STARLINK-48 3.7 17:25:41 10° WNW 17:29:32 57° N 17:32:51 13° E
STARLINK-27 4.0 17:25:39 10° W 17:29:37 54° N 17:33:13 12° ENE
ARGOS 4.1 17:25:36 10° ESE 17:30:08 28° ENE 17:34:42 10° N
Meteor 1-25 Rocket 4.4 17:25:23 10° SSE 17:30:49 50° E 17:36:13 10° NNE
STARLINK-1059 3.6 17:27:02 10° WSW 17:31:11 87° NNW 17:35:01 12° ENE
STARLINK-74 4.0 17:27:19 10° W 17:31:17 54° N 17:34:50 13° ENE
Aureole 2 Rocket 4.1 17:29:07 10° WSW 17:31:26 25° WNW 17:33:50 10° N
Okean-O 4.2 17:27:46 10° S 17:31:58 41° W 17:36:11 10° NNW
STARLINK-1026 3.7 17:29:20 10° W 17:32:43 50° N 17:35:36 13° ENE
STARLINK-39 4.0 17:28:58 10° W 17:32:56 54° N 17:36:24 13° ENE
STARLINK-1054 4.3 17:29:12 10° SSW 17:33:01 37° SE 17:36:12 14° E
STARLINK-1023 3.7 17:30:12 10° W 17:33:25 47° N 17:36:07 14° ENE
NOSS 3-1 (A) 3.6 17:27:49 10° SW 17:33:28 75° NW 17:40:08 10° NE
USA 186 3.2 17:34:04 15° ENE 17:34:24 15° ENE 17:36:10 10° NNE
Resurs 01 Rocket 3.6 17:33:50 10° ENE 17:34:34 11° NE 17:35:32 10° NE
STARLINK-31 4.0 17:30:41 10° W 17:34:38 54° N 17:38:02 14° ENE
STARLINK-1013 3.7 17:31:35 10° W 17:34:58 49° N 17:37:46 14° ENE
STARLINK-61 4.0 17:31:32 10° WNW 17:35:22 51° N 17:38:30 15° ENE
Cosmos 1939 Rocket 2.9 17:31:18 10° SSE 17:35:27 90° WSW 17:39:38 10° NNW
STARLINK-1057 3.6 17:32:02 10° WSW 17:36:11 83° NNW 17:39:48 13° ENE
STARLINK-26 3.5 17:32:56 10° WNW 17:36:21 55° NNE 17:38:56 16° E
STARLINK-69 4.0 17:32:32 10° W 17:36:29 53° N 17:39:48 14° ENE
STARLINK-1009 3.7 17:33:49 10° W 17:37:11 49° N 17:39:54 15° ENE
Cosmos 1869 Rocket 4.3 17:33:33 10° SSE 17:37:22 30° E 17:41:10 10° NNE
STARLINK-1062 4.2 17:34:06 10° SSW 17:37:58 40° SE 17:40:58 16° E
STARLINK-21 4.0 17:34:01 10° W 17:37:59 53° N 17:41:14 15° ENE
CSL-04 Rocket 3.8 17:32:39 10° SSE 17:38:10 87° WSW 17:43:40 10° NNW
STARLINK-1015 3.7 17:36:05 10° W 17:39:27 48° N 17:42:04 15° ENE
STARLINK-45 4.0 17:35:55 10° W 17:39:52 52° N 17:43:01 15° ENE
STARLINK-1034 3.7 17:37:00 10° WSW 17:41:09 80° NNW 17:44:34 15° ENE
STARLINK-70 4.0 17:37:28 10° W 17:41:25 52° N 17:44:31 16° ENE
STARLINK-1053 4.1 17:39:01 10° SW 17:42:56 43° SE 17:45:46 17° E
STARLINK-76 4.0 17:39:00 10° W 17:42:57 52° N 17:45:59 16° ENE
CZ-2D R/B 3.5 17:39:15 10° S 17:43:09 77° WSW 17:47:03 10° NNW
ATLAS 3B R/B 3.9 17:37:43 10° NW 17:43:18 27° NNE 17:48:15 13° ENE
STARLINK-1014 3.7 17:41:06 10° W 17:44:33 50° N 17:47:04 17° ENE
STARLINK-23 4.0 17:40:40 10° W 17:44:37 52° N 17:47:34 17° ENE
CZ-2C R/B 3.9 17:40:20 10° SE 17:45:32 36° ENE 17:50:36 10° N
STARLINK-80 3.4 17:42:12 10° WNW 17:46:02 76° NNE 17:48:42 19° ESE
STARLINK-1068 3.7 17:41:59 10° WSW 17:46:08 77° NNW 17:49:21 16° ENE
STARLINK-32 4.0 17:42:17 10° W 17:46:15 52° N 17:49:08 17° ENE
CZ-4 R/B 2.6 17:42:47 10° S 17:46:48 46° W 17:50:48 10° NNW
STARLINK-1061 4.0 17:43:55 10° SW 17:47:53 46° SE 17:50:32 19° E
STARLINK-40 4.0 17:43:58 10° W 17:47:55 52° N 17:50:45 18° ENE
STARLINK-44 4.0 17:45:38 10° W 17:49:35 52° N 17:52:20 18° ENE
Lacrosse 4 Rocket 4.1 17:47:28 10° WNW 17:49:54 15° NNW 17:52:23 10° N
YAOGAN 1 3.4 17:46:43 10° S 17:50:57 55° W 17:55:14 10° NNW
STARLINK-37 4.0 17:47:25 10° W 17:51:22 52° N 17:54:02 19° ENE
CRYOSAT 2 4.5 17:46:36 10° S 17:51:31 81° W 17:56:27 10° N
STARLINK-1067 3.9 17:48:51 10° SW 17:52:51 49° SSE 17:55:19 21° E
STARLINK-36 4.0 17:48:56 10° W 17:52:53 52° N 17:55:30 20° ENE
STARLINK-64 3.8 17:49:34 10° WNW 17:53:04 48° N 17:55:09 21° ENE
Ariane Rocket 3.0 17:48:48 10° SSE 17:53:49 62° ENE 17:58:53 10° N
Cosmos 540 Rocket 4.4 17:49:50 10° SSE 17:53:51 24° E 17:57:55 10° NE
STARLINK-33 3.5 17:51:10 10° WNW 17:54:22 48° N 17:56:01 24° ENE
Okean 3 4.3 17:50:57 10° N 17:54:41 30° ENE 17:56:53 19° ESE
STARLINK-68 4.0 17:50:50 10° WNW 17:54:46 52° N 17:57:17 21° ENE
SJ-6B 3.6 17:53:43 20° ESE 17:55:25 29° ENE 17:58:45 10° N
Cosmos 489 Rocket 4.5 17:49:28 10° S 17:55:42 63° ESE 18:01:57 10° NNE
STARLINK-55 3.5 17:52:33 10° WNW 17:55:45 48° N 17:57:20 25° ENE
USA 116 4.2 17:51:53 10° N 17:56:02 77° WNW 18:00:42 10° SSW
STARLINK-1060 3.8 17:51:58 10° WSW 17:56:06 71° NNW 17:58:55 20° ENE
STARLINK-63 4.0 17:52:23 10° WNW 17:56:20 52° N 17:58:46 21° ENE
STARLINK-66 3.5 17:53:26 10° WNW 17:56:39 48° N 17:58:12 25° ENE
STARLINK-28 3.4 17:54:09 10° WNW 17:57:22 50° N 17:58:52 26° ENE
Cosmos 990 Rocket 4.0 17:52:28 10° NNW 17:57:39 86° WSW 18:02:48 10° SSE
STARLINK-1058 3.8 17:53:46 10° SW 17:57:48 52° SSE 18:00:06 23° E
STARLINK-35 4.0 17:53:56 10° WNW 17:57:53 52° N 18:00:16 22° ENE
NOSS 2-3 (C) 4.3 17:53:28 10° WSW 17:57:54 60° NW 18:03:19 10° NE
FREGAT/IRIS 3.0 17:57:40 32° E 17:57:57 32° ENE 18:00:27 10° N
STARLINK-42 3.5 17:55:01 10° WNW 17:58:11 47° N 17:59:38 26° ENE
STARLINK-51 4.0 17:55:36 10° WNW 17:59:33 52° N 18:01:52 22° ENE
STARLINK-1029 3.6 17:57:13 10° W 18:00:17 44° N 18:01:47 25° NE
STARLINK-1007 3.7 17:57:46 10° WNW 18:01:02 45° N 18:02:38 25° ENE
STARLINK-1030 3.8 17:56:59 10° W 18:01:07 69° NNW 18:03:43 22° ENE
STARLINK-30 4.0 17:57:15 10° WNW 18:01:13 52° N 18:03:27 23° ENE
Cosmos 1943 Rocket 3.7 17:56:26 10° WSW 18:01:32 35° NW 18:06:37 10° NNE
Cosmos 2297 Rocket 2.9 17:56:54 10° NNW 18:02:07 35° NE 18:04:59 22° E
Cosmos 1933 Rocket 4.0 17:57:50 10° SSW 18:02:12 64° WNW 18:06:34 10° N
STARLINK-1043 3.8 17:58:42 10° SW 18:02:45 56° SSE 18:04:52 26° E
STARLINK-72 4.0 17:58:56 10° WNW 18:02:53 52° N 18:05:03 24° ENE
SJ-11-01 4.2 17:59:45 10° SSE 18:04:23 72° ENE 18:09:04 10° N
STARLINK-50 4.0 18:00:36 10° WNW 18:04:33 52° N 18:06:39 25° ENE
Nadezhda 4 Rocket 4.0 17:58:33 10° N 18:04:50 64° ENE 18:11:07 10° SSE
STARLINK-1020 3.8 18:01:58 10° W 18:06:05 66° NNW 18:08:30 24° ENE
STARLINK-59 4.0 18:02:21 10° WNW 18:06:18 52° N 18:08:19 26° ENE
SL-08 RB Rocket 4.3 18:04:26 23° ESE 18:06:25 33° ENE 18:10:26 10° N
STARLINK-1065 3.7 18:03:28 10° SW 18:07:32 59° SSE 18:09:29 29° E
STARLINK-56 4.0 18:03:55 10° WNW 18:07:52 52° N 18:09:50 26° ENE
IRS-1A Rocket 4.1 18:04:01 10° SSE 18:09:31 78° ENE 18:15:03 10° NNW
STARLINK-73 4.0 18:05:35 10° WNW 18:09:32 52° N 18:11:25 27° ENE
Cosmos 1346 Rocket 4.1 18:06:20 10° SW 18:10:07 42° WNW 18:13:53 10° N
STARLINK-1010 3.7 18:07:11 10° WNW 18:10:21 44° N 18:11:28 31° NE
STARLINK-1052 3.9 18:06:57 10° W 18:11:05 64° NNW 18:13:16 26° ENE
STARLINK-38 4.0 18:07:15 10° WNW 18:11:13 52° N 18:13:02 28° ENE
Cosmos 1937 Rocket 3.5 18:07:08 10° NNW 18:12:26 88° WSW 18:17:37 10° SSE
STARLINK-1063 3.6 18:08:34 10° SW 18:12:40 63° SSE 18:14:25 32° E
STARLINK-65 4.0 18:08:54 10° WNW 18:12:51 52° N 18:14:36 29° ENE
Cosmos 1464 Rocket 4.0 18:06:33 10° S 18:12:56 84° E 18:19:21 10° N
STARLINK-1047 3.9 18:09:16 10° W 18:13:25 63° NNW 18:15:33 27° ENE
STARLINK-53 4.0 18:10:40 10° WNW 18:14:37 52° N 18:16:17 30° ENE
ADEOS Rocket 3.6 18:07:01 10° NNE 18:14:53 87° WNW 18:22:30 10° SSW
Cosmos 1515 3.6 18:11:11 10° N 18:14:57 59° ENE 18:17:27 20° SSE
Genesis I 3.1 18:11:45 10° NW 18:15:38 68° NE 18:17:05 35° ESE
MONITOR-E 3.7 18:16:07 61° ENE 18:16:07 61° ENE 18:18:43 10° N
USA 238 DEB 3.9 18:10:14 10° NW 18:17:19 62° NE 18:21:53 24° ESE
USA 238 3.9 18:10:21 10° NW 18:17:24 61° NE 18:21:56 25° ESE
STARLINK-1064 3.6 18:13:32 10° SW 18:17:38 67° SSE 18:19:12 36° E
Cosmos 1263 4.5 18:14:48 10° N 18:19:01 78° E 18:21:35 17° SSE
Meteor 2-11 Rocket 4.4 18:13:07 10° S 18:19:13 90° E 18:25:20 10° N
STARLINK-1033 3.9 18:16:56 10° W 18:21:03 61° NNW 18:22:50 31° ENE
Cosmos 2227 Rocket 2.7 18:15:59 10° NNW 18:21:21 41° NE 18:23:26 30° E
STARLINK-1041 3.5 18:18:29 10° SW 18:22:36 71° SSE 18:23:59 40° E
SL-24 DEB 4.2 18:20:21 10° SSE 18:24:58 64° E 18:29:35 10° N
Cosmos 2221 Rocket 3.5 18:20:48 10° N 18:25:19 67° ENE 18:28:33 18° SSE
Cosmos 1656 Rocket 4.4 18:20:22 10° SW 18:25:47 54° NW 18:31:20 10° NNE
STARLINK-1038 3.5 18:23:26 10° WSW 18:27:33 75° SSE 18:28:45 45° E
Cosmos 1674 Rocket 4.4 18:24:22 10° N 18:28:02 32° ENE 18:28:02 32° ENE
H-2A R/B 2.1 18:25:31 10° SSE 18:30:56 87° ENE 18:36:27 10° NNW
STARLINK-1024 4.0 18:26:58 10° W 18:31:05 58° N 18:32:25 37° NE
STARLINK-1046 3.5 18:28:25 10° WSW 18:32:33 79° SSE 18:33:33 50° ENE
STARLINK 1040 3.6 18:30:17 10° WNW 18:32:39 40° NNW 18:32:39 40° NNW
Cosmos 2034 Rocket 3.9 18:29:18 10° S 18:35:28 88° E 18:41:40 10° N
STARLINK-22 3.3 18:33:00 10° WNW 18:36:16 55° N 18:36:16 55° N
Cosmos 372 Rocket 3.9 18:31:45 10° NNW 18:37:00 69° ENE 18:39:10 35° SE
STARLINK-1039 3.5 18:33:25 10° WSW 18:37:34 84° SSE 18:38:22 57° ENE
STARLINK-41 3.3 18:34:31 10° WNW 18:37:41 56° N 18:37:41 56° N
STARLINK-1016 3.6 18:35:20 10° WNW 18:38:39 48° N 18:38:44 48° NNE
Cosmos 220 Rocket 4.1 18:34:26 10° SSW 18:38:44 76° WNW 18:43:01 10° NNE
STARLINK-1008 3.6 18:37:00 10° WNW 18:40:19 48° N 18:40:19 48° N
STARLINK-1032 4.0 18:36:59 10° W 18:41:04 56° N 18:41:59 44° NE
STARLINK-75 3.3 18:38:50 10° WNW 18:41:58 61° N 18:41:58 61° N
STARLINK-1045 3.5 18:38:22 10° WSW 18:42:31 88° SSE 18:43:08 64° ENE
STARLINK-58 3.5 18:39:49 10° WNW 18:43:17 57° N 18:43:17 57° N
STARLINK-24 3.7 18:39:28 10° WNW 18:43:26 57° N 18:43:51 53° NE
STARLINK-1025 3.7 18:41:10 10° WNW 18:44:21 49° N 18:44:21 49° N
Resurs 1-3 3.7 18:44:37 52° ENE 18:44:37 52° ENE 18:48:50 10° N
STARLINK-62 3.5 18:41:32 10° WNW 18:44:55 58° N 18:44:55 58° N
STARLINK-1011 4.0 18:41:58 10° W 18:46:02 55° N 18:46:45 48° NNE
Cosmos 1428 Rocket 4.5 18:40:29 10° N 18:46:30 55° ENE 18:48:34 38° SE
STARLINK-1017 3.7 18:43:15 10° WNW 18:46:21 48° N 18:46:21 48° N
STARLINK-34 3.5 18:43:09 10° WNW 18:46:29 58° N 18:46:29 58° N
STARLINK-1050 3.5 18:43:24 10° WSW 18:47:33 87° NNW 18:47:59 71° ENE
Lacrosse 5 rocket 1.6 18:43:01 10° NW 18:47:35 66° NNE 18:48:11 59° ENE
STARLINK-1035 4.1 18:43:37 10° W 18:47:49 55° N 18:48:33 48° NE
STARLINK-1031 4.0 18:44:00 10° W 18:48:03 53° N 18:48:37 48° NNE
MetOp-A 4.1 18:46:48 40° SE 18:48:38 65° ENE 18:53:58 10° N
Cosmos 2219 3.1 18:43:57 10° NNW 18:49:45 87° ENE 18:52:15 36° SSE
STARLINK-1036 4.0 18:46:58 10° W 18:51:02 54° N 18:51:32 50° NNE
STARLINK-1055 3.5 18:48:22 10° WSW 18:52:31 84° NNW 18:52:45 78° NE
Cosmos 1092 Rocket 3.9 18:46:20 10° N 18:52:43 88° ENE 18:58:47 11° S
STARLINK-1048 3.9 18:49:36 10° WNW 18:52:29 46° NNW 18:52:29 46° NNW
STARLINK-81 3.8 18:50:11 10° WNW 18:54:09 58° N 18:54:09 58° N
Lacrosse 5 1.7 18:49:29 10° SW 18:54:35 80° SE 18:55:38 57° ENE
STARLINK-1049 4.0 18:51:45 10° WNW 18:54:32 45° NNW 18:54:32 45° NNW
STARLINK-54 3.8 18:52:02 10° WNW 18:55:56 60° N 18:55:56 60° N
STARLINK-1044 4.0 18:51:58 10° W 18:56:03 54° N 18:56:19 52° NNE
Meteor 2-4 Rocket 4.1 18:50:52 10° NNW 18:56:46 70° W 19:02:39 10° S
STARLINK-1051 4.1 18:53:55 10° WNW 18:56:37 44° NNW 18:56:37 44° NNW
STARLINK-77 3.8 18:53:30 10° WNW 18:57:20 59° N 18:57:20 59° N
STARLINK-1022 3.5 18:53:21 10° WSW 18:57:30 80° NNW 18:57:32 80° NNW
USA 234 3.7 18:55:21 33° ENE 18:58:00 51° N 19:04:17 10° WNW
STARLINK-1027 4.1 18:54:20 10° W 18:58:32 54° N 18:58:47 53° NNE
STARLINK-1028 4.2 18:55:35 10° WNW 18:58:14 43° NW 18:58:14 43° NW
STARLINK-25 3.8 18:55:09 10° WNW 18:58:55 58° N 18:58:55 58° N
Cosmos 1634 Rocket 3.9 18:52:58 10° S 18:59:12 63° E 19:05:27 10° NNE
Cosmos 2263 Rocket 3.9 18:55:48 10° N 18:59:41 18° NE 18:59:45 18° NE
GP-B 3.8 19:01:33 40° NNE 19:01:33 40° NNE 19:04:34 10° N
CZ-2C R/B 4.2 18:55:16 10° NNE 18:57:07 20° NE 18:57:07 20° NE
STARLINK-71 3.9 18:57:01 10° WNW 19:00:42 59° NNW 19:00:42 59° NNW
STARLINK-1021 4.3 18:57:46 10° WNW 19:00:21 41° NW 19:00:21 41° NW
Gbstr 26 Del rocket 3.0 18:57:27 10° WSW 19:01:43 85° NNW 19:02:07 74° NE
Cosmos 1814 Rocket 3.8 18:57:14 10° SSW 19:02:21 85° ESE 19:07:33 10° NNE
STARLINK-79 3.9 18:58:28 10° WNW 19:02:07 58° NNW 19:02:07 58° NNW
STARLINK-1042 3.7 18:58:21 10° WSW 19:02:20 75° NW 19:02:20 75° NW
STARLINK-1019 4.4 18:59:59 10° WNW 19:02:28 40° NW 19:02:28 40° NW
STARLINK-78 4.0 19:00:09 10° WNW 19:03:43 57° NNW 19:03:43 57° NNW
Cosmos 2195 Rocket 4.4 18:58:28 10° N 19:04:38 89° W 19:08:27 25° S
SWAS 4.4 19:00:34 10° NNW 19:04:48 79° WSW 19:04:48 79° WSW
USA 186 3.9 19:05:54 23° WNW 19:05:54 23° WNW 19:07:42 10° NW
Meteor 2-13 Rocket 4.4 18:59:22 10° N 19:05:21 57° ENE 19:05:45 55° E
STARLINK-1012 4.5 19:02:13 10° WNW 19:04:37 38° NW 19:04:37 38° NW
STARLINK-57 4.0 19:01:54 10° WNW 19:05:23 56° NNW 19:05:23 56° NNW
STARLINK-1037 4.1 19:01:53 10° W 19:05:48 52° NNW 19:05:48 52° NNW
SJ 16-02 3.8 19:02:49 10° NW 19:06:06 21° W 19:09:21 10° SW
STARLINK-49 4.1 19:03:27 10° WNW 19:06:53 55° NNW 19:06:53 55° NNW
STARLINK-1056 3.8 19:03:20 10° WSW 19:07:06 68° WNW 19:07:06 68° WNW
NOSS 3-2 (A) 4.0 19:00:06 10° NW 19:07:32 87° SW 19:10:56 40° SE
STARLINK-48 4.2 19:04:24 10° WNW 19:07:38 49° WSW 19:07:38 49° WSW
Cosmos 841 Rocket 3.5 19:03:17 10° SSW 19:08:27 79° WNW 19:13:40 10° NNE
Cosmos 1763 Rocket 4.4 19:03:57 10° SW 19:09:01 48° WNW 19:14:11 10° NNE
STARLINK-27 4.1 19:05:05 10° WNW 19:08:28 54° NNW 19:08:28 54° NNW
ARGOS 3.8 19:04:48 10° S 19:10:07 54° W 19:15:28 10° NNW
Resurs 01 Rocket 2.2 19:11:23 46° N 19:11:23 46° N 19:14:39 10° N
Cosmos 2298 Rocket 4.2 19:05:06 10° NNW 19:10:26 70° WSW 19:12:03 44° S
STARLINK-74 4.2 19:06:46 10° WNW 19:10:04 52° NW 19:10:04 52° NW
STARLINK-1059 4.3 19:06:58 10° W 19:10:40 51° NNW 19:10:40 51° NNW
NOSS 3-2 (C) 3.9 19:04:02 10° NW 19:11:24 76° NE 19:13:51 49° ESE
STARLINK-39 4.2 19:08:24 10° WNW 19:11:38 51° NW 19:11:38 51° NW
STARLINK-1054 4.1 19:08:18 10° WSW 19:11:52 60° WNW 19:11:52 60° WNW
STARLINK-31 4.3 19:10:06 10° WNW 19:13:16 50° NW 19:13:16 50° NW
STARLINK-61 4.3 19:10:26 10° WNW 19:13:23 49° WNW 19:13:23 49° WNW
ARGOS Delta rocket 4.4 19:13:10 32° SSW 19:14:55 51° W 19:19:21 10° NNW
SPOT 3 Rocket 3.8 19:13:10 34° S 19:15:24 66° WSW 19:20:38 10° NNW
Cosmos 2208 Rocket 4.4 19:10:15 10° SW 19:15:37 66° WNW 19:20:58 10° NNE
Meteor 1-11 Rocket 3.5 19:10:22 10° S 19:15:56 81° E 19:21:30 10° NNE
STARLINK-69 4.4 19:11:56 10° WNW 19:15:02 49° NW 19:15:02 49° NW
STARLINK-1057 4.4 19:11:58 10° WNW 19:15:27 48° NNW 19:15:27 48° NNW
STARLINK-1062 4.3 19:13:18 10° W 19:16:39 54° WNW 19:16:39 54° WNW
STARLINK-21 4.4 19:13:26 10° WNW 19:16:28 47° NW 19:16:28 47° NW
CENTAUR R/B 3.1 19:12:34 10° NW 19:20:25 73° NE 19:22:39 53° ESE
Cosmos 389 Rocket 4.4 19:17:56 10° NNW 19:19:48 28° NNW 19:19:48 28° NNW
CZ-2C R/B 4.3 19:19:48 10° S 19:25:18 44° W 19:30:40 10° NNW
Cosmos 1125 Rocket 3.6 19:27:05 10° NNW 19:32:01 76° NW 19:32:01 76° NW
Cosmos 540 Rocket 4.0 19:30:03 10° SW 19:35:05 56° WNW 19:40:11 10° NNE
ATLAS 3B R/B 2.8 19:28:42 10° NW 19:35:21 59° NE 19:35:31 58° NE
Cosmos 1066 Rocket 4.3 19:36:28 10° NNW 19:41:59 78° NW 19:41:59 78° NW
Cosmos 2297 Rocket 2.8 19:40:54 10° NW 19:46:22 50° WSW 19:46:50 48° SW
Terra 4.3 19:57:30 13° N 19:57:30 13° N 19:58:07 10° N
ATLAS 2AS CENTAUR R/B 4.5 19:51:25 10° SSW 19:53:45 21° SSW 19:53:45 21° SSW
Cosmos 2227 Rocket 3.2 20:00:10 10° NW 20:05:17 40° WSW 20:05:17 40° WSW
Lacrosse 5 rocket 4.2 20:22:30 10° WNW 20:23:51 17° W 20:23:51 17° W
Lacrosse 5 4.1 20:33:05 10° W 20:34:52 21° WNW 20:34:52 21° WNW
CZ-2C R/B 4.4 20:35:40 10° N 20:38:39 27° NNW 20:38:39 27° NNW
USA 234 3.9 20:42:41 50° NW 20:42:41 50° NW 20:47:18 10° WNW
Cosmos 2263 Rocket 4.0 20:39:02 10° NNW 20:41:27 26° NNW 20:41:27 26° NNW
CENTAUR R/B 4.1 21:03:36 10° NW 21:09:51 38° W 21:09:51 38° W
ATLAS 3B R/B 4.3 21:19:37 10° NW 21:22:47 27° WNW 21:22:47 27° WNW
